TimeMST,TemperatureF,Dew PointF,Humidity,Sea Level PressureIn,VisibilityMPH,Wind Direction,Wind SpeedMPH,Gust SpeedMPH,PrecipitationIn,Events,Conditions,WindDirDegrees,DateUTC
12:53 AM,30.0,21.0,69,29.95,10.0,WNW,11.5,-,N/A,,Clear,300,2011-11-30 07:53:00
1:53 AM,33.1,19.0,56,29.92,10.0,WSW,9.2,-,N/A,,Clear,250,2011-11-30 08:53:00
2:53 AM,34.0,18.0,52,29.91,10.0,SW,4.6,-,N/A,,Clear,220,2011-11-30 09:53:00
3:53 AM,32.0,19.0,59,29.90,10.0,Calm,Calm,-,N/A,,Clear,0,2011-11-30 10:53:00
4:53 AM,28.9,19.0,67,29.91,10.0,Calm,Calm,-,N/A,,Clear,0,2011-11-30 11:53:00
5:53 AM,34.0,19.0,54,29.87,10.0,Calm,Calm,-,N/A,,Clear,0,2011-11-30 12:53:00
6:53 AM,30.9,19.0,61,29.90,10.0,WNW,6.9,-,N/A,,Clear,300,2011-11-30 13:53:00
7:53 AM,34.0,19.0,54,29.87,10.0,Calm,Calm,-,N/A,,Clear,0,2011-11-30 14:53:00
8:53 AM,34.0,21.0,59,29.88,10.0,West,3.5,-,N/A,,Clear,270,2011-11-30 15:53:00
9:53 AM,36.0,24.1,62,29.87,10.0,Calm,Calm,-,N/A,,Clear,0,2011-11-30 16:53:00
10:53 AM,43.0,21.0,42,29.84,10.0,North,3.5,-,N/A,,Clear,360,2011-11-30 17:53:00
11:53 AM,46.9,21.0,36,29.80,10.0,East,4.6,-,N/A,,Clear,80,2011-11-30 18:53:00
12:53 PM,45.0,21.0,39,29.81,10.0,Calm,Calm,-,N/A,,Scattered Clouds,0,2011-11-30 19:53:00
1:53 PM,48.0,21.0,34,29.78,10.0,South,3.5,-,N/A,,Clear,190,2011-11-30 20:53:00
2:36 PM,41.0,24.8,53,29.83,10.0,NNE,29.9,40.3,N/A,,Squalls,30,2011-11-30 21:36:00
2:49 PM,37.4,26.6,65,29.84,10.0,NNE,23.0,36.8,N/A,,Overcast,20,2011-11-30 21:49:00
2:53 PM,37.0,27.0,67,29.86,10.0,NNE,24.2,36.8,N/A,,Overcast,20,2011-11-30 21:53:00
3:53 PM,34.0,26.1,73,30.00,9.0,Calm,Calm,-,0.00,,Overcast,0,2011-11-30 22:53:00
4:01 PM,33.8,26.6,75,29.96,7.0,NNW,4.6,-,N/A,,Overcast,340,2011-11-30 23:01:00
4:06 PM,33.8,26.6,75,29.96,1.8,NNE,3.5,-,0.00,Snow,Light Snow,30,2011-11-30 23:06:00
4:16 PM,32.0,28.4,87,29.98,0.2,WSW,4.6,-,0.01,Fog-Snow,Snow,250,2011-11-30 23:16:00
4:26 PM,30.2,30.2,100,29.99,0.2,NW,8.1,-,0.04,Fog-Snow,Snow,310,2011-11-30 23:26:00
4:53 PM,30.9,28.0,89,30.08,0.8,Calm,Calm,-,0.07,Snow,Light Snow,0,2011-11-30 23:53:00
5:53 PM,28.9,28.0,96,30.11,0.5,NNE,11.5,-,0.08,Fog-Snow,Snow,20,2011-12-01 00:53:00
6:09 PM,28.4,28.4,100,30.07,0.8,North,6.9,-,0.01,Snow,Light Snow,10,2011-12-01 01:09:00
6:53 PM,28.9,28.0,96,30.17,0.8,North,8.1,-,0.06,Snow,Light Snow,350,2011-12-01 01:53:00
7:02 PM,28.4,28.4,100,30.11,1.0,North,8.1,-,0.01,Snow,Light Snow,360,2011-12-01 02:02:00
7:53 PM,28.9,27.0,92,30.20,1.5,North,9.2,19.6,0.03,Snow,Light Snow,10,2011-12-01 02:53:00
8:02 PM,28.4,26.6,93,30.14,1.2,North,10.4,-,0.00,Snow,Light Snow,10,2011-12-01 03:02:00
8:18 PM,28.4,26.6,93,30.15,1.2,North,6.9,-,0.01,Snow,Light Snow,350,2011-12-01 03:18:00
8:33 PM,28.4,26.6,93,30.16,2.0,North,5.8,-,0.01,Snow,Light Snow,350,2011-12-01 03:33:00
8:42 PM,28.4,26.6,93,30.17,1.8,North,5.8,-,0.02,Snow,Light Snow,360,2011-12-01 03:42:00
8:49 PM,28.4,26.6,93,30.17,2.0,North,3.5,-,0.02,Snow,Light Snow,350,2011-12-01 03:49:00
8:53 PM,28.9,27.0,92,30.24,2.0,North,3.5,-,0.02,Snow,Light Snow,360,2011-12-01 03:53:00
8:58 PM,28.4,26.6,93,30.18,2.0,North,6.9,-,0.00,Snow,Light Snow,360,2011-12-01 03:58:00
9:02 PM,28.4,26.6,93,30.18,1.8,North,3.5,-,0.00,Snow,Light Snow,360,2011-12-01 04:02:00
9:09 PM,28.4,26.6,93,30.18,1.2,North,4.6,-,0.00,Snow,Light Snow,10,2011-12-01 04:09:00
9:33 PM,28.4,26.6,93,30.21,2.5,North,12.7,18.4,0.01,Snow,Light Snow,350,2011-12-01 04:33:00
9:38 PM,28.4,24.8,86,30.21,4.0,North,17.3,21.9,0.01,Snow,Light Snow,10,2011-12-01 04:38:00
9:47 PM,28.4,19.4,69,30.22,10.0,NNE,18.4,27.6,0.01,,Overcast,20,2011-12-01 04:47:00
9:53 PM,27.0,19.9,75,30.29,10.0,NNE,12.7,27.6,0.01,,Overcast,20,2011-12-01 04:53:00
10:53 PM,26.1,19.0,75,30.30,10.0,ENE,6.9,-,0.00,,Overcast,60,2011-12-01 05:53:00
11:10 PM,26.6,19.4,74,30.27,4.0,NNW,6.9,-,0.00,Snow,Light Snow,340,2011-12-01 06:10:00
11:20 PM,24.8,21.2,86,30.27,1.8,West,8.1,-,0.00,Snow,Light Snow,280,2011-12-01 06:20:00
11:28 PM,24.8,23.0,93,30.28,0.8,West,5.8,-,0.00,Snow,Light Snow,270,2011-12-01 06:28:00
11:51 PM,24.8,23.0,93,30.28,1.0,West,4.6,-,0.02,Snow,Light Snow,270,2011-12-01 06:51:00
11:53 PM,24.1,23.0,96,30.32,1.2,West,4.6,-,0.02,Snow,Light Snow,260,2011-12-01 06:53:00